Time,TemperatureF,DewpointF,PressureIn,WindDirection,WindDirectionDegrees,WindSpeedMPH,WindSpeedGustMPH,Humidity,HourlyPrecipIn,Conditions,Clouds,dailyrainin,SolarRadiationWatts/m^2,SoftwareType,DateUTC
2013-05-26 00:01:00,42.6,39.4,29.70,WNW,294,7.0,18.0,88,0.00,,,0.20,0.0,meteohub,2013-05-26 04:01:00,
2013-05-26 00:02:00,42.6,39.4,29.70,NW,318,7.0,18.0,88,0.00,,,0.20,0.0,meteohub,2013-05-26 04:02:00,
2013-05-26 00:07:00,42.8,39.7,29.70,WNW,294,6.0,18.0,89,0.00,,,0.00,0.0,meteohub,2013-05-26 04:07:00,
2013-05-26 00:12:00,43.0,39.9,29.70,West,277,9.0,17.0,89,0.00,,,0.00,0.0,meteohub,2013-05-26 04:12:00,
2013-05-26 00:17:00,42.8,40.1,29.70,WNW,298,5.0,18.0,90,0.00,,,0.00,0.0,meteohub,2013-05-26 04:17:00,
2013-05-26 00:22:00,42.4,39.4,29.70,NW,310,9.0,18.0,89,0.00,,,0.00,0.0,meteohub,2013-05-26 04:22:00,
2013-05-26 00:27:00,42.4,39.4,29.70,West,275,8.0,18.0,89,0.00,,,0.00,0.0,meteohub,2013-05-26 04:27:00,
2013-05-26 00:32:00,42.3,39.6,29.70,WNW,294,11.0,18.0,90,0.00,,,0.00,0.0,meteohub,2013-05-26 04:32:00,
2013-05-26 00:37:00,42.1,39.4,29.70,WNW,291,8.0,18.0,90,0.00,,,0.00,0.0,meteohub,2013-05-26 04:37:00,
2013-05-26 00:42:00,41.7,39.0,29.70,WNW,294,13.0,16.0,90,0.00,,,0.00,0.0,meteohub,2013-05-26 04:42:00,
2013-05-26 00:47:00,41.7,39.0,29.70,NW,305,8.0,18.0,90,0.00,,,0.00,0.0,meteohub,2013-05-26 04:47:00,
2013-05-26 00:52:00,41.7,39.2,29.70,WSW,252,10.0,20.0,91,0.00,,,0.00,0.0,meteohub,2013-05-26 04:52:00,
2013-05-26 00:57:00,41.7,39.2,29.70,West,281,6.0,20.0,91,0.00,,,0.00,0.0,meteohub,2013-05-26 04:57:00,
2013-05-26 01:02:00,41.7,39.2,29.69,NW,315,9.0,16.0,91,0.00,,,0.00,0.0,meteohub,2013-05-26 05:02:00,
2013-05-26 01:07:00,41.5,39.2,29.69,WNW,294,11.0,16.0,91,0.00,,,0.00,0.0,meteohub,2013-05-26 05:07:00,
2013-05-26 01:12:00,41.4,39.0,29.69,WNW,293,9.0,17.0,91,0.00,,,0.00,0.0,meteohub,2013-05-26 05:12:00,
2013-05-26 01:17:00,41.4,39.2,29.69,WNW,301,10.0,17.0,92,0.00,,,0.00,0.0,meteohub,2013-05-26 05:17:00,
2013-05-26 01:22:00,41.2,39.0,29.69,WNW,288,6.0,17.0,92,0.00,,,0.00,0.0,meteohub,2013-05-26 05:22:00,
2013-05-26 01:27:00,41.2,39.0,29.69,WNW,288,6.0,16.0,92,0.00,,,0.00,0.0,meteohub,2013-05-26 05:27:00,
2013-05-26 01:32:00,41.0,39.2,29.68,NNW,344,9.0,16.0,93,0.00,,,0.00,0.0,meteohub,2013-05-26 05:32:00,
2013-05-26 01:37:00,40.8,38.7,29.68,WNW,287,8.0,18.0,92,0.00,,,0.00,0.0,meteohub,2013-05-26 05:37:00,
2013-05-26 01:42:00,40.8,39.0,29.68,West,269,7.0,18.0,93,0.00,,,0.00,0.0,meteohub,2013-05-26 05:42:00,
2013-05-26 01:47:00,40.8,39.0,29.68,NW,315,8.0,18.0,93,0.00,,,0.00,0.0,meteohub,2013-05-26 05:47:00,
2013-05-26 01:52:00,40.8,39.0,29.68,West,281,5.0,16.0,93,0.00,,,0.00,0.0,meteohub,2013-05-26 05:52:00,
2013-05-26 01:57:00,40.8,39.2,29.68,WNW,287,9.0,16.0,94,0.00,,,0.00,0.0,meteohub,2013-05-26 05:57:00,
2013-05-26 02:02:00,40.6,39.0,29.68,WNW,290,5.0,16.0,94,0.00,,,0.00,0.0,meteohub,2013-05-26 06:02:00,
2013-05-26 02:08:00,40.6,39.0,29.68,WNW,296,7.0,16.0,94,0.00,,,0.00,0.0,meteohub,2013-05-26 06:08:00,
2013-05-26 02:13:00,40.5,39.2,29.68,West,281,7.0,16.0,95,0.00,,,0.00,0.0,meteohub,2013-05-26 06:13:00,
2013-05-26 02:18:00,40.5,39.2,29.69,WNW,284,7.0,16.0,95,0.00,,,0.00,0.0,meteohub,2013-05-26 06:18:00,
2013-05-26 02:23:00,40.5,39.2,29.69,WNW,302,7.0,15.0,95,0.00,,,0.00,0.0,meteohub,2013-05-26 06:23:00,
2013-05-26 02:28:00,40.3,39.0,29.69,WNW,292,5.0,17.0,95,0.00,,,0.00,0.0,meteohub,2013-05-26 06:28:00,
2013-05-26 02:33:00,40.3,39.0,29.68,West,276,6.0,17.0,95,0.00,,,0.00,0.0,meteohub,2013-05-26 06:33:00,
2013-05-26 02:38:00,40.3,39.2,29.68,NW,315,8.0,17.0,96,0.00,,,0.00,0.0,meteohub,2013-05-26 06:38:00,
2013-05-26 02:43:00,40.3,39.2,29.68,WNW,293,6.0,13.0,96,0.00,,,0.00,0.0,meteohub,2013-05-26 06:43:00,
2013-05-26 02:48:00,40.3,39.2,29.68,WNW,293,10.0,14.0,96,0.00,,,0.00,0.0,meteohub,2013-05-26 06:48:00,
2013-05-26 02:53:00,40.5,39.4,29.68,WSW,246,5.0,14.0,96,0.00,,,0.00,0.0,meteohub,2013-05-26 06:53:00,
2013-05-26 02:58:00,40.5,39.4,29.68,WNW,289,5.0,14.0,96,0.00,,,0.00,0.0,meteohub,2013-05-26 06:58:00,
2013-05-26 03:03:00,40.5,39.4,29.68,WNW,296,5.0,14.0,96,0.00,,,0.00,0.0,meteohub,2013-05-26 07:03:00,
2013-05-26 03:08:00,40.5,39.2,29.68,WNW,293,9.0,14.0,95,0.00,,,0.00,0.0,meteohub,2013-05-26 07:08:00,
2013-05-26 03:13:00,40.5,39.2,29.68,WNW,296,6.0,13.0,95,0.00,,,0.00,0.0,meteohub,2013-05-26 07:13:00,
2013-05-26 03:18:00,40.5,39.2,29.68,WNW,283,7.0,13.0,95,0.00,,,0.00,0.0,meteohub,2013-05-26 07:18:00,
2013-05-26 03:23:00,40.5,39.2,29.68,West,277,7.0,13.0,95,0.00,,,0.00,0.0,meteohub,2013-05-26 07:23:00,
2013-05-26 03:28:00,40.5,39.2,29.68,WNW,292,7.0,13.0,95,0.00,,,0.00,0.0,meteohub,2013-05-26 07:28:00,
2013-05-26 03:33:00,40.5,39.2,29.68,WNW,300,8.0,15.0,95,0.00,,,0.00,0.0,meteohub,2013-05-26 07:33:00,
2013-05-26 03:38:00,40.5,39.2,29.68,NW,304,7.0,15.0,95,0.00,,,0.00,0.0,meteohub,2013-05-26 07:38:00,
2013-05-26 03:43:00,40.5,38.8,29.68,WNW,302,6.0,15.0,94,0.00,,,0.00,0.0,meteohub,2013-05-26 07:43:00,
2013-05-26 03:49:00,40.5,38.8,29.68,WNW,297,6.0,15.0,94,0.00,,,0.00,0.0,meteohub,2013-05-26 07:49:00,
2013-05-26 03:54:00,40.5,39.2,29.68,WNW,290,7.0,15.0,95,0.00,,,0.00,0.0,meteohub,2013-05-26 07:54:00,
2013-05-26 03:59:00,40.5,39.2,29.68,WNW,300,8.0,15.0,95,0.00,,,0.00,0.0,meteohub,2013-05-26 07:59:00,
2013-05-26 04:04:00,40.3,39.0,29.68,WNW,287,5.0,15.0,95,0.00,,,0.00,0.0,meteohub,2013-05-26 08:04:00,
2013-05-26 04:09:00,40.3,39.0,29.68,NW,306,5.0,16.0,95,0.00,,,0.00,0.0,meteohub,2013-05-26 08:09:00,
2013-05-26 04:14:00,40.3,39.0,29.68,NW,306,6.0,16.0,95,0.00,,,0.00,0.0,meteohub,2013-05-26 08:14:00,
2013-05-26 04:19:00,40.3,39.0,29.69,WNW,288,4.0,16.0,95,0.00,,,0.00,0.0,meteohub,2013-05-26 08:19:00,
2013-05-26 04:24:00,40.5,39.2,29.69,West,260,6.0,15.0,95,0.00,,,0.00,0.0,meteohub,2013-05-26 08:24:00,
2013-05-26 04:29:00,40.5,39.2,29.69,NW,304,9.0,15.0,95,0.00,,,0.00,0.0,meteohub,2013-05-26 08:29:00,
2013-05-26 04:34:00,40.5,38.8,29.69,WNW,289,8.0,15.0,94,0.00,,,0.00,0.0,meteohub,2013-05-26 08:34:00,
2013-05-26 04:39:00,40.5,38.8,29.69,WNW,288,6.0,15.0,94,0.00,,,0.00,0.0,meteohub,2013-05-26 08:39:00,
2013-05-26 04:45:00,40.5,39.2,29.69,NNW,332,6.0,15.0,95,0.00,,,0.00,0.0,meteohub,2013-05-26 08:45:00,
2013-05-26 04:50:00,40.3,39.0,29.70,NW,317,7.0,12.0,95,0.00,,,0.00,0.0,meteohub,2013-05-26 08:50:00,
2013-05-26 04:55:00,40.3,39.0,29.70,WNW,288,5.0,12.0,95,0.00,,,0.00,0.0,meteohub,2013-05-26 08:55:00,
2013-05-26 04:59:00,40.3,39.0,29.70,NW,309,6.0,12.0,95,0.00,,,0.00,0.0,meteohub,2013-05-26 08:59:00,
2013-05-26 05:05:00,40.3,39.0,29.70,West,273,6.0,13.0,95,0.00,,,0.00,0.0,meteohub,2013-05-26 09:05:00,
2013-05-26 05:10:00,40.5,39.2,29.70,NW,305,6.0,13.0,95,0.00,,,0.00,0.0,meteohub,2013-05-26 09:10:00,
2013-05-26 05:15:00,40.5,39.2,29.70,West,275,9.0,16.0,95,0.00,,,0.00,0.0,meteohub,2013-05-26 09:15:00,
2013-05-26 05:20:00,40.5,39.2,29.70,WNW,289,7.0,16.0,95,0.00,,,0.00,0.0,meteohub,2013-05-26 09:20:00,
2013-05-26 05:25:00,40.5,39.2,29.70,NW,306,5.0,16.0,95,0.00,,,0.00,0.0,meteohub,2013-05-26 09:25:00,
2013-05-26 05:30:00,40.5,39.2,29.70,West,275,6.0,14.0,95,0.00,,,0.00,5.0,meteohub,2013-05-26 09:30:00,
2013-05-26 05:35:00,40.5,39.2,29.70,NW,316,8.0,13.0,95,0.00,,,0.00,5.0,meteohub,2013-05-26 09:35:00,
2013-05-26 05:40:00,40.5,39.2,29.70,WNW,298,5.0,13.0,95,0.00,,,0.00,9.0,meteohub,2013-05-26 09:40:00,
2013-05-26 05:45:00,40.6,39.4,29.70,WNW,284,7.0,12.0,95,0.00,,,0.00,14.0,meteohub,2013-05-26 09:45:00,
2013-05-26 05:50:00,40.6,39.4,29.71,NW,322,6.0,12.0,95,0.00,,,0.00,18.0,meteohub,2013-05-26 09:50:00,
2013-05-26 05:55:00,40.8,39.6,29.71,WNW,282,6.0,13.0,95,0.00,,,0.00,19.0,meteohub,2013-05-26 09:55:00,
2013-05-26 06:00:00,40.8,39.6,29.71,WNW,283,5.0,14.0,95,0.00,,,0.00,19.0,meteohub,2013-05-26 10:00:00,
2013-05-26 06:05:00,40.8,39.6,29.71,WNW,298,9.0,17.0,95,0.00,,,0.00,19.0,meteohub,2013-05-26 10:05:00,
2013-05-26 06:10:00,41.0,39.7,29.71,WNW,283,8.0,17.0,95,0.00,,,0.00,21.0,meteohub,2013-05-26 10:10:00,
2013-05-26 06:15:00,41.2,39.9,29.71,WNW,287,9.0,16.0,95,0.00,,,0.00,23.0,meteohub,2013-05-26 10:15:00,
2013-05-26 06:21:00,41.2,39.9,29.72,West,274,6.0,16.0,95,0.00,,,0.00,26.0,meteohub,2013-05-26 10:21:00,
2013-05-26 06:26:00,41.2,39.9,29.72,WNW,293,9.0,16.0,95,0.01,,,0.01,26.0,meteohub,2013-05-26 10:26:00,
2013-05-26 06:31:00,41.2,39.9,29.72,WNW,297,8.0,16.0,95,0.01,,,0.01,25.0,meteohub,2013-05-26 10:31:00,
2013-05-26 06:36:00,41.2,39.9,29.72,WNW,293,11.0,16.0,95,0.01,,,0.01,25.0,meteohub,2013-05-26 10:36:00,
2013-05-26 06:41:00,41.2,39.9,29.72,NW,317,8.0,16.0,95,0.01,,,0.01,23.0,meteohub,2013-05-26 10:41:00,
2013-05-26 06:46:00,41.2,39.9,29.72,NW,320,5.0,15.0,95,0.02,,,0.02,26.0,meteohub,2013-05-26 10:46:00,
2013-05-26 06:51:00,41.2,39.9,29.73,WNW,299,7.0,15.0,95,0.02,,,0.02,23.0,meteohub,2013-05-26 10:51:00,
2013-05-26 06:56:00,41.2,40.1,29.73,West,267,7.0,14.0,96,0.02,,,0.02,25.0,meteohub,2013-05-26 10:56:00,
2013-05-26 07:01:00,41.4,40.3,29.73,NW,317,6.0,16.0,96,0.02,,,0.02,28.0,meteohub,2013-05-26 11:01:00,
2013-05-26 07:06:00,41.4,40.1,29.73,WNW,299,6.0,16.0,95,0.03,,,0.03,26.0,meteohub,2013-05-26 11:06:00,
2013-05-26 07:11:00,41.4,40.3,29.73,WNW,296,9.0,16.0,96,0.03,,,0.03,33.0,meteohub,2013-05-26 11:11:00,
2013-05-26 07:16:00,41.4,40.3,29.73,WNW,290,4.0,16.0,96,0.03,,,0.03,30.0,meteohub,2013-05-26 11:16:00,
2013-05-26 07:21:00,41.4,40.3,29.73,WNW,288,5.0,16.0,96,0.03,,,0.03,39.0,meteohub,2013-05-26 11:21:00,
2013-05-26 07:26:00,41.4,40.3,29.73,WNW,286,7.0,16.0,96,0.02,,,0.03,42.0,meteohub,2013-05-26 11:26:00,
2013-05-26 07:31:00,41.5,40.3,29.73,WNW,294,6.0,16.0,95,0.03,,,0.04,51.0,meteohub,2013-05-26 11:31:00,
2013-05-26 07:36:00,41.5,40.3,29.74,NNW,330,14.0,16.0,95,0.03,,,0.04,51.0,meteohub,2013-05-26 11:36:00,
2013-05-26 07:42:00,41.5,40.3,29.74,WNW,303,8.0,16.0,95,0.03,,,0.04,65.0,meteohub,2013-05-26 11:42:00,
2013-05-26 07:47:00,41.5,40.3,29.74,WNW,283,10.0,17.0,95,0.02,,,0.04,90.0,meteohub,2013-05-26 11:47:00,
2013-05-26 07:52:00,41.5,40.3,29.75,NW,316,10.0,17.0,95,0.02,,,0.04,104.0,meteohub,2013-05-26 11:52:00,
2013-05-26 07:57:00,41.7,40.5,29.75,WNW,297,4.0,17.0,95,0.02,,,0.04,107.0,meteohub,2013-05-26 11:57:00,
2013-05-26 08:02:00,41.5,40.3,29.75,West,281,8.0,15.0,95,0.01,,,0.04,120.0,meteohub,2013-05-26 12:02:00,
2013-05-26 08:07:00,41.5,40.3,29.75,WNW,301,11.0,15.0,95,0.01,,,0.04,114.0,meteohub,2013-05-26 12:07:00,
2013-05-26 08:12:00,41.5,40.3,29.75,NW,316,15.0,15.0,95,0.01,,,0.04,105.0,meteohub,2013-05-26 12:12:00,
2013-05-26 08:16:00,41.7,40.6,29.75,NW,324,11.0,15.0,96,0.01,,,0.04,97.0,meteohub,2013-05-26 12:16:00,
2013-05-26 08:21:00,41.5,40.5,29.75,WNW,287,6.0,15.0,96,0.01,,,0.04,105.0,meteohub,2013-05-26 12:21:00,
2013-05-26 08:26:00,41.5,40.5,29.75,WNW,283,8.0,15.0,96,0.00,,,0.04,132.0,meteohub,2013-05-26 12:26:00,
2013-05-26 08:31:00,41.7,40.6,29.75,NW,314,12.0,14.0,96,0.00,,,0.04,163.0,meteohub,2013-05-26 12:31:00,
2013-05-26 08:36:00,41.9,40.8,29.76,NNW,333,5.0,14.0,96,0.00,,,0.04,192.0,meteohub,2013-05-26 12:36:00,
2013-05-26 08:41:00,42.3,41.2,29.76,West,281,10.0,15.0,96,0.00,,,0.04,192.0,meteohub,2013-05-26 12:41:00,
2013-05-26 08:46:00,42.4,41.4,29.76,WNW,292,7.0,17.0,96,0.00,,,0.04,216.0,meteohub,2013-05-26 12:46:00,
2013-05-26 08:52:00,42.6,41.4,29.76,West,269,9.0,17.0,95,0.00,,,0.04,218.0,meteohub,2013-05-26 12:52:00,
2013-05-26 08:57:00,42.8,41.5,29.76,WNW,295,4.0,17.0,95,0.00,,,0.04,236.0,meteohub,2013-05-26 12:57:00,
2013-05-26 09:02:00,43.2,41.9,29.76,WNW,286,10.0,15.0,95,0.00,,,0.04,223.0,meteohub,2013-05-26 13:02:00,
2013-05-26 09:07:00,43.3,41.7,29.77,WNW,285,5.0,15.0,94,0.00,,,0.04,221.0,meteohub,2013-05-26 13:07:00,
2013-05-26 09:12:00,43.5,41.9,29.77,NW,305,8.0,18.0,94,0.00,,,0.04,292.0,meteohub,2013-05-26 13:12:00,
2013-05-26 09:17:00,43.9,41.9,29.77,WNW,288,7.0,18.0,93,0.00,,,0.04,322.0,meteohub,2013-05-26 13:17:00,
2013-05-26 09:22:00,44.2,42.3,29.77,NW,315,8.0,18.0,93,0.00,,,0.04,346.0,meteohub,2013-05-26 13:22:00,
2013-05-26 09:27:00,44.2,42.1,29.77,West,272,5.0,14.0,92,0.00,,,0.04,283.0,meteohub,2013-05-26 13:27:00,
2013-05-26 09:32:00,44.4,42.3,29.77,West,281,8.0,14.0,92,0.00,,,0.04,318.0,meteohub,2013-05-26 13:32:00,
2013-05-26 09:37:00,44.6,42.1,29.78,WNW,293,7.0,13.0,91,0.00,,,0.04,250.0,meteohub,2013-05-26 13:37:00,
2013-05-26 09:42:00,44.8,42.3,29.78,WNW,294,7.0,15.0,91,0.00,,,0.04,248.0,meteohub,2013-05-26 13:42:00,
2013-05-26 09:47:00,45.0,42.3,29.78,West,277,5.0,15.0,90,0.00,,,0.04,295.0,meteohub,2013-05-26 13:47:00,
2013-05-26 09:52:00,45.1,42.4,29.78,NW,306,7.0,15.0,90,0.00,,,0.04,371.0,meteohub,2013-05-26 13:52:00,
2013-05-26 09:57:00,45.5,42.4,29.78,West,263,9.0,15.0,89,0.00,,,0.04,369.0,meteohub,2013-05-26 13:57:00,
2013-05-26 10:02:00,45.7,42.6,29.78,WNW,296,5.0,14.0,89,0.00,,,0.04,452.0,meteohub,2013-05-26 14:02:00,
2013-05-26 10:07:00,45.9,42.3,29.79,WNW,290,7.0,17.0,87,0.00,,,0.04,313.0,meteohub,2013-05-26 14:07:00,
2013-05-26 10:12:00,45.9,41.9,29.79,WNW,296,5.0,18.0,86,0.00,,,0.04,540.0,meteohub,2013-05-26 14:12:00,
2013-05-26 10:17:00,46.4,42.1,29.79,WNW,298,11.0,18.0,85,0.00,,,0.04,427.0,meteohub,2013-05-26 14:17:00,
2013-05-26 10:22:00,46.6,42.6,29.79,WNW,292,7.0,18.0,86,0.00,,,0.04,415.0,meteohub,2013-05-26 14:22:00,
2013-05-26 10:27:00,46.8,42.4,29.79,West,266,9.0,17.0,85,0.00,,,0.04,431.0,meteohub,2013-05-26 14:27:00,
2013-05-26 10:32:00,47.1,42.6,29.79,WNW,301,8.0,19.0,84,0.00,,,0.04,469.0,meteohub,2013-05-26 14:32:00,
2013-05-26 10:37:00,47.1,41.9,29.80,WNW,302,9.0,19.0,82,0.00,,,0.04,431.0,meteohub,2013-05-26 14:37:00,
2013-05-26 10:42:00,47.5,42.6,29.80,WNW,300,7.0,19.0,83,0.00,,,0.04,515.0,meteohub,2013-05-26 14:42:00,
2013-05-26 10:47:00,48.0,42.8,29.80,NW,318,7.0,19.0,82,0.00,,,0.04,424.0,meteohub,2013-05-26 14:47:00,
2013-05-26 10:52:00,48.2,42.3,29.80,WNW,294,9.0,19.0,80,0.00,,,0.04,469.0,meteohub,2013-05-26 14:52:00,
2013-05-26 10:57:00,48.4,43.2,29.80,WNW,298,6.0,18.0,82,0.00,,,0.04,506.0,meteohub,2013-05-26 14:57:00,
2013-05-26 11:02:00,48.9,43.0,29.80,WNW,296,13.0,18.0,80,0.00,,,0.04,517.0,meteohub,2013-05-26 15:02:00,
2013-05-26 11:07:00,49.1,42.8,29.81,NW,307,6.0,18.0,79,0.00,,,0.04,462.0,meteohub,2013-05-26 15:07:00,
2013-05-26 11:12:00,49.6,42.8,29.81,NW,304,5.0,18.0,77,0.00,,,0.04,554.0,meteohub,2013-05-26 15:12:00,
2013-05-26 11:17:00,50.4,42.8,29.81,WNW,283,6.0,18.0,75,0.00,,,0.04,1044.0,meteohub,2013-05-26 15:17:00,
2013-05-26 11:22:00,51.1,43.2,29.81,NW,311,6.0,15.0,74,0.00,,,0.04,654.0,meteohub,2013-05-26 15:22:00,
2013-05-26 11:27:00,51.6,43.3,29.81,WNW,299,8.0,15.0,73,0.00,,,0.04,928.0,meteohub,2013-05-26 15:27:00,
2013-05-26 11:32:00,51.4,43.2,29.81,NW,309,12.0,15.0,73,0.00,,,0.04,666.0,meteohub,2013-05-26 15:32:00,
2013-05-26 11:37:00,52.0,43.2,29.81,NW,318,7.0,15.0,72,0.00,,,0.04,582.0,meteohub,2013-05-26 15:37:00,
2013-05-26 11:42:00,52.2,43.0,29.81,WNW,300,6.0,15.0,71,0.00,,,0.04,1030.0,meteohub,2013-05-26 15:42:00,
2013-05-26 11:47:00,52.9,43.3,29.81,WNW,300,4.0,17.0,70,0.00,,,0.04,1000.0,meteohub,2013-05-26 15:47:00,
2013-05-26 11:52:00,53.1,42.4,29.81,NW,321,9.0,17.0,67,0.00,,,0.04,557.0,meteohub,2013-05-26 15:52:00,
2013-05-26 11:57:00,53.1,43.2,29.81,West,271,7.0,17.0,69,0.00,,,0.04,1179.0,meteohub,2013-05-26 15:57:00,
2013-05-26 12:02:00,53.2,42.6,29.81,NW,321,6.0,14.0,67,0.00,,,0.04,1123.0,meteohub,2013-05-26 16:02:00,
2013-05-26 12:07:00,54.1,43.0,29.82,North,350,12.0,14.0,66,0.00,,,0.04,983.0,meteohub,2013-05-26 16:07:00,
2013-05-26 12:12:00,53.8,42.3,29.82,NW,314,6.0,17.0,65,0.00,,,0.04,972.0,meteohub,2013-05-26 16:12:00,
2013-05-26 12:17:00,53.8,41.9,29.82,NW,312,7.0,17.0,64,0.00,,,0.04,983.0,meteohub,2013-05-26 16:17:00,
2013-05-26 12:22:00,54.1,43.0,29.83,NW,320,7.0,22.0,66,0.00,,,0.04,984.0,meteohub,2013-05-26 16:22:00,
2013-05-26 12:27:00,54.7,42.3,29.83,West,269,8.0,22.0,63,0.00,,,0.04,967.0,meteohub,2013-05-26 16:27:00,
2013-05-26 12:32:00,54.7,41.5,29.83,NNW,329,11.0,14.0,61,0.00,,,0.04,967.0,meteohub,2013-05-26 16:32:00,
2013-05-26 12:37:00,54.7,41.5,29.83,NW,313,4.0,16.0,61,0.00,,,0.04,965.0,meteohub,2013-05-26 16:37:00,
2013-05-26 12:42:00,54.9,42.1,29.83,WNW,302,6.0,16.0,62,0.00,,,0.04,967.0,meteohub,2013-05-26 16:42:00,
2013-05-26 12:47:00,55.6,42.3,29.83,NW,325,6.0,25.0,61,0.00,,,0.04,1002.0,meteohub,2013-05-26 16:47:00,
2013-05-26 12:52:00,55.0,41.0,29.83,WNW,283,8.0,25.0,59,0.00,,,0.04,1000.0,meteohub,2013-05-26 16:52:00,
2013-05-26 12:57:00,55.2,40.6,29.83,NW,312,7.0,25.0,58,0.00,,,0.04,997.0,meteohub,2013-05-26 16:57:00,
2013-05-26 13:02:00,55.8,41.7,29.83,NW,313,6.0,17.0,59,0.00,,,0.04,1109.0,meteohub,2013-05-26 17:02:00,
2013-05-26 13:07:00,56.5,41.0,29.83,NW,314,9.0,15.0,56,0.00,,,0.04,1313.0,meteohub,2013-05-26 17:07:00,
2013-05-26 13:12:00,55.9,41.4,29.83,NW,313,6.0,16.0,58,0.00,,,0.04,680.0,meteohub,2013-05-26 17:12:00,
2013-05-26 13:17:00,56.5,41.4,29.83,WNW,286,8.0,16.0,57,0.00,,,0.04,631.0,meteohub,2013-05-26 17:17:00,
2013-05-26 13:22:00,55.9,41.0,29.84,NNW,348,7.0,17.0,57,0.00,,,0.04,1171.0,meteohub,2013-05-26 17:22:00,
2013-05-26 13:27:00,55.8,41.2,29.84,WNW,292,7.0,17.0,58,0.00,,,0.04,338.0,meteohub,2013-05-26 17:27:00,
2013-05-26 13:32:00,56.5,42.3,29.84,WSW,252,7.0,17.0,59,0.00,,,0.04,928.0,meteohub,2013-05-26 17:32:00,
2013-05-26 13:37:00,56.8,42.3,29.84,NW,324,8.0,17.0,58,0.00,,,0.04,575.0,meteohub,2013-05-26 17:37:00,
2013-05-26 13:42:00,56.5,41.0,29.84,WNW,302,8.0,13.0,56,0.00,,,0.04,649.0,meteohub,2013-05-26 17:42:00,
2013-05-26 13:47:00,56.7,40.6,29.84,NW,304,11.0,14.0,55,0.00,,,0.04,547.0,meteohub,2013-05-26 17:47:00,
2013-05-26 13:52:00,57.4,40.8,29.84,NW,311,8.0,14.0,54,0.00,,,0.04,1187.0,meteohub,2013-05-26 17:52:00,
2013-05-26 13:57:00,56.5,40.1,29.84,NW,306,6.0,14.0,54,0.00,,,0.04,483.0,meteohub,2013-05-26 17:57:00,
2013-05-26 14:02:00,56.7,41.2,29.84,NW,311,8.0,16.0,56,0.00,,,0.04,334.0,meteohub,2013-05-26 18:02:00,
2013-05-26 14:07:00,56.3,41.7,29.85,WNW,300,10.0,16.0,58,0.00,,,0.04,288.0,meteohub,2013-05-26 18:07:00,
2013-05-26 14:12:00,55.8,41.7,29.85,WNW,283,8.0,15.0,59,0.00,,,0.04,202.0,meteohub,2013-05-26 18:12:00,
2013-05-26 14:17:00,55.6,41.5,29.85,WSW,250,5.0,15.0,59,0.00,,,0.04,209.0,meteohub,2013-05-26 18:17:00,
2013-05-26 14:22:00,55.2,41.2,29.86,West,279,8.0,17.0,59,0.00,,,0.04,229.0,meteohub,2013-05-26 18:22:00,
2013-05-26 14:27:00,55.2,40.6,29.86,NNW,330,12.0,17.0,58,0.00,,,0.04,248.0,meteohub,2013-05-26 18:27:00,
2013-05-26 14:32:00,55.0,40.5,29.86,WNW,294,8.0,17.0,58,0.00,,,0.04,278.0,meteohub,2013-05-26 18:32:00,
2013-05-26 14:37:00,55.0,40.5,29.86,WNW,296,13.0,16.0,58,0.00,,,0.04,346.0,meteohub,2013-05-26 18:37:00,
2013-05-26 14:42:00,55.2,40.6,29.86,WNW,294,8.0,16.0,58,0.00,,,0.04,485.0,meteohub,2013-05-26 18:42:00,
2013-05-26 14:47:00,55.8,40.8,29.86,WNW,293,6.0,16.0,57,0.00,,,0.04,605.0,meteohub,2013-05-26 18:47:00,
2013-05-26 14:52:00,56.1,40.1,29.86,WNW,295,7.0,16.0,55,0.00,,,0.04,541.0,meteohub,2013-05-26 18:52:00,
2013-05-26 14:57:00,56.1,40.1,29.86,WNW,290,6.0,15.0,55,0.00,,,0.04,401.0,meteohub,2013-05-26 18:57:00,
2013-05-26 15:02:00,56.5,41.0,29.86,West,273,6.0,15.0,56,0.00,,,0.04,550.0,meteohub,2013-05-26 19:02:00,
2013-05-26 15:07:00,56.8,41.7,29.86,NW,307,11.0,14.0,57,0.00,,,0.04,881.0,meteohub,2013-05-26 19:07:00,
2013-05-26 15:12:00,56.7,40.6,29.86,NW,317,7.0,14.0,55,0.00,,,0.04,420.0,meteohub,2013-05-26 19:12:00,
2013-05-26 15:17:00,56.5,40.5,29.86,NNW,331,7.0,19.0,55,0.00,,,0.04,309.0,meteohub,2013-05-26 19:17:00,
2013-05-26 15:22:00,56.3,40.8,29.87,WSW,257,12.0,19.0,56,0.00,,,0.04,332.0,meteohub,2013-05-26 19:22:00,
2013-05-26 15:27:00,56.1,39.7,29.87,WNW,296,10.0,19.0,54,0.00,,,0.04,543.0,meteohub,2013-05-26 19:27:00,
2013-05-26 15:32:00,56.8,40.5,29.87,NW,325,13.0,16.0,54,0.00,,,0.04,838.0,meteohub,2013-05-26 19:32:00,
2013-05-26 15:37:00,56.7,40.3,29.87,WSW,254,16.0,16.0,54,0.00,,,0.04,422.0,meteohub,2013-05-26 19:37:00,
2013-05-26 15:42:00,55.9,39.9,29.87,NW,314,9.0,16.0,55,0.00,,,0.04,200.0,meteohub,2013-05-26 19:42:00,
2013-05-26 15:47:00,55.2,39.7,29.87,NW,321,7.0,19.0,56,0.00,,,0.04,218.0,meteohub,2013-05-26 19:47:00,
2013-05-26 15:51:00,55.0,40.5,29.89,West,274,8.0,19.0,58,0.00,,,0.04,294.0,meteohub,2013-05-26 19:51:00,
2013-05-26 15:56:00,55.2,40.3,29.89,WNW,300,8.0,19.0,57,0.00,,,0.04,438.0,meteohub,2013-05-26 19:56:00,
2013-05-26 16:01:00,55.8,40.3,29.89,NW,325,13.0,17.0,56,0.00,,,0.04,364.0,meteohub,2013-05-26 20:01:00,
2013-05-26 16:06:00,55.4,40.8,29.89,WNW,303,10.0,21.0,58,0.00,,,0.04,315.0,meteohub,2013-05-26 20:06:00,
2013-05-26 16:11:00,54.9,40.3,29.89,WNW,302,8.0,21.0,58,0.00,,,0.04,350.0,meteohub,2013-05-26 20:11:00,
2013-05-26 16:17:00,54.9,39.9,29.89,North,355,19.0,21.0,57,0.00,,,0.04,686.0,meteohub,2013-05-26 20:17:00,
2013-05-26 16:22:00,55.8,39.9,29.90,NNW,333,9.0,19.0,55,0.00,,,0.04,636.0,meteohub,2013-05-26 20:22:00,
2013-05-26 16:27:00,55.9,39.6,29.90,NNW,327,13.0,19.0,54,0.00,,,0.04,652.0,meteohub,2013-05-26 20:27:00,
2013-05-26 16:32:00,55.9,39.0,29.90,WNW,289,14.0,24.0,53,0.00,,,0.04,613.0,meteohub,2013-05-26 20:32:00,
2013-05-26 16:37:00,56.5,40.1,29.90,West,263,9.0,24.0,54,0.00,,,0.04,612.0,meteohub,2013-05-26 20:37:00,
2013-05-26 16:42:00,56.1,39.7,29.90,WNW,286,5.0,24.0,54,0.00,,,0.04,274.0,meteohub,2013-05-26 20:42:00,
2013-05-26 16:47:00,55.6,39.2,29.90,North,355,8.0,18.0,54,0.00,,,0.04,306.0,meteohub,2013-05-26 20:47:00,
2013-05-26 16:52:00,55.6,39.7,29.90,NW,313,10.0,18.0,55,0.00,,,0.04,302.0,meteohub,2013-05-26 20:52:00,
2013-05-26 16:57:00,55.4,39.0,29.90,NNW,330,9.0,18.0,54,0.00,,,0.04,218.0,meteohub,2013-05-26 20:57:00,
2013-05-26 17:02:00,55.2,38.8,29.90,NNW,328,9.0,18.0,54,0.00,,,0.04,480.0,meteohub,2013-05-26 21:02:00,
2013-05-26 17:07:00,55.8,39.4,29.90,NNW,338,22.0,22.0,54,0.00,,,0.04,522.0,meteohub,2013-05-26 21:07:00,
2013-05-26 17:12:00,56.1,39.2,29.90,WNW,286,10.0,22.0,53,0.00,,,0.04,499.0,meteohub,2013-05-26 21:12:00,
2013-05-26 17:17:00,56.1,39.7,29.90,NW,305,12.0,22.0,54,0.00,,,0.04,408.0,meteohub,2013-05-26 21:17:00,
2013-05-26 17:22:00,55.6,38.7,29.92,WNW,293,6.0,22.0,53,0.00,,,0.04,241.0,meteohub,2013-05-26 21:22:00,
2013-05-26 17:27:00,55.4,39.6,29.92,NW,317,9.0,18.0,55,0.00,,,0.04,141.0,meteohub,2013-05-26 21:27:00,
2013-05-26 17:32:00,55.8,39.4,29.92,West,280,8.0,18.0,54,0.00,,,0.04,432.0,meteohub,2013-05-26 21:32:00,
2013-05-26 17:37:00,55.2,38.8,29.92,NW,306,10.0,18.0,54,0.00,,,0.04,86.0,meteohub,2013-05-26 21:37:00,
2013-05-26 17:42:00,55.0,39.6,29.92,West,267,13.0,19.0,56,0.00,,,0.04,72.0,meteohub,2013-05-26 21:42:00,
2013-05-26 17:47:00,55.4,40.5,29.92,NW,311,6.0,19.0,57,0.00,,,0.04,67.0,meteohub,2013-05-26 21:47:00,
2013-05-26 17:52:00,54.9,39.4,29.93,NNW,332,7.0,19.0,56,0.00,,,0.04,83.0,meteohub,2013-05-26 21:52:00,
2013-05-26 17:57:00,55.2,40.3,29.93,NW,314,8.0,17.0,57,0.00,,,0.04,320.0,meteohub,2013-05-26 21:57:00,
2013-05-26 18:02:00,55.6,40.1,29.93,NW,323,8.0,17.0,56,0.00,,,0.04,84.0,meteohub,2013-05-26 22:02:00,
2013-05-26 18:07:00,55.6,40.1,29.94,NW,326,8.0,17.0,56,0.00,,,0.04,292.0,meteohub,2013-05-26 22:07:00,
2013-05-26 18:12:00,55.8,40.8,29.94,WNW,284,12.0,16.0,57,0.00,,,0.04,225.0,meteohub,2013-05-26 22:12:00,
2013-05-26 18:17:00,55.6,40.1,29.94,NNW,346,16.0,16.0,56,0.00,,,0.04,141.0,meteohub,2013-05-26 22:17:00,
2013-05-26 18:21:00,55.4,39.9,29.95,NNW,327,10.0,16.0,56,0.00,,,0.04,118.0,meteohub,2013-05-26 22:21:00,
2013-05-26 18:26:00,55.2,39.7,29.95,NW,322,8.0,17.0,56,0.00,,,0.04,155.0,meteohub,2013-05-26 22:26:00,
2013-05-26 18:32:00,55.6,40.1,29.95,West,271,5.0,17.0,56,0.00,,,0.04,220.0,meteohub,2013-05-26 22:32:00,
2013-05-26 18:37:00,55.6,40.6,29.95,WNW,283,7.0,18.0,57,0.00,,,0.04,181.0,meteohub,2013-05-26 22:37:00,
2013-05-26 18:42:00,55.4,40.5,29.95,NW,317,7.0,18.0,57,0.00,,,0.04,128.0,meteohub,2013-05-26 22:42:00,
2013-05-26 18:47:00,55.2,40.6,29.95,NW,318,8.0,18.0,58,0.00,,,0.04,46.0,meteohub,2013-05-26 22:47:00,
2013-05-26 18:52:00,55.0,41.0,29.96,WNW,296,8.0,14.0,59,0.00,,,0.04,104.0,meteohub,2013-05-26 22:52:00,
2013-05-26 18:57:00,54.9,40.3,29.96,WNW,292,6.0,14.0,58,0.00,,,0.04,32.0,meteohub,2013-05-26 22:57:00,
2013-05-26 19:02:00,54.5,39.6,29.96,WNW,297,5.0,15.0,57,0.00,,,0.04,35.0,meteohub,2013-05-26 23:02:00,
2013-05-26 19:07:00,54.7,40.6,29.96,NW,323,5.0,16.0,59,0.00,,,0.04,53.0,meteohub,2013-05-26 23:07:00,
2013-05-26 19:12:00,54.7,40.6,29.96,NW,322,6.0,16.0,59,0.00,,,0.04,40.0,meteohub,2013-05-26 23:12:00,
2013-05-26 19:17:00,54.7,40.3,29.96,NNW,327,7.0,16.0,58,0.00,,,0.04,32.0,meteohub,2013-05-26 23:17:00,
2013-05-26 19:22:00,54.5,40.5,29.97,NNW,344,11.0,13.0,59,0.00,,,0.04,25.0,meteohub,2013-05-26 23:22:00,
2013-05-26 19:27:00,54.3,40.3,29.97,NW,306,6.0,13.0,59,0.00,,,0.04,21.0,meteohub,2013-05-26 23:27:00,
2013-05-26 19:32:00,54.1,40.6,29.97,NW,318,5.0,13.0,60,0.00,,,0.04,19.0,meteohub,2013-05-26 23:32:00,
2013-05-26 19:37:00,54.0,41.2,29.98,WNW,303,12.0,13.0,62,0.00,,,0.04,19.0,meteohub,2013-05-26 23:37:00,
2013-05-26 19:42:00,53.8,41.0,29.98,NW,319,8.0,15.0,62,0.00,,,0.04,16.0,meteohub,2013-05-26 23:42:00,
2013-05-26 19:47:00,53.8,40.6,29.98,NNW,334,6.0,15.0,61,0.00,,,0.04,14.0,meteohub,2013-05-26 23:47:00,
2013-05-26 19:52:00,53.8,39.7,29.99,NW,304,4.0,15.0,59,0.00,,,0.04,11.0,meteohub,2013-05-26 23:52:00,
2013-05-26 19:57:00,53.6,40.1,29.99,WNW,299,10.0,16.0,60,0.00,,,0.04,9.0,meteohub,2013-05-26 23:57:00,
2013-05-26 20:02:00,53.4,39.9,29.99,NW,304,5.0,16.0,60,0.00,,,0.04,7.0,meteohub,2013-05-27 00:02:00,
2013-05-26 20:07:00,53.2,39.7,29.99,NNW,333,10.0,18.0,60,0.00,,,0.04,5.0,meteohub,2013-05-27 00:07:00,
2013-05-26 20:12:00,53.2,40.1,29.99,NNW,337,9.0,18.0,61,0.00,,,0.04,0.0,meteohub,2013-05-27 00:12:00,
2013-05-26 20:17:00,52.9,40.3,29.99,NW,314,5.0,18.0,62,0.00,,,0.04,0.0,meteohub,2013-05-27 00:17:00,
2013-05-26 20:22:00,52.9,40.3,30.00,WNW,292,9.0,14.0,62,0.00,,,0.04,0.0,meteohub,2013-05-27 00:22:00,
2013-05-26 20:27:00,52.5,39.9,30.00,WNW,287,10.0,15.0,62,0.00,,,0.04,0.0,meteohub,2013-05-27 00:27:00,
2013-05-26 20:32:00,52.5,39.9,30.00,NNW,331,6.0,15.0,62,0.00,,,0.04,0.0,meteohub,2013-05-27 00:32:00,
2013-05-26 20:37:00,52.3,40.1,30.01,WNW,301,4.0,15.0,63,0.00,,,0.04,0.0,meteohub,2013-05-27 00:37:00,
2013-05-26 20:42:00,52.2,39.9,30.01,WNW,296,4.0,15.0,63,0.00,,,0.04,0.0,meteohub,2013-05-27 00:42:00,
2013-05-26 20:47:00,52.2,40.3,30.01,NW,312,5.0,13.0,64,0.00,,,0.04,0.0,meteohub,2013-05-27 00:47:00,
2013-05-26 20:52:00,52.0,40.1,30.01,North,355,5.0,13.0,64,0.00,,,0.04,0.0,meteohub,2013-05-27 00:52:00,
2013-05-26 20:57:00,52.0,40.1,30.01,WNW,289,4.0,13.0,64,0.00,,,0.04,0.0,meteohub,2013-05-27 00:57:00,
2013-05-26 21:02:00,51.8,40.1,30.01,NW,306,6.0,13.0,64,0.00,,,0.04,0.0,meteohub,2013-05-27 01:02:00,
2013-05-26 21:07:00,51.6,40.6,30.02,West,273,8.0,14.0,66,0.00,,,0.04,0.0,meteohub,2013-05-27 01:07:00,
2013-05-26 21:12:00,51.4,40.1,30.02,WNW,284,10.0,14.0,65,0.00,,,0.04,0.0,meteohub,2013-05-27 01:12:00,
2013-05-26 21:17:00,51.4,40.1,30.02,West,261,10.0,13.0,65,0.00,,,0.04,0.0,meteohub,2013-05-27 01:17:00,
2013-05-26 21:22:00,51.3,39.9,30.03,West,261,7.0,16.0,65,0.00,,,0.04,0.0,meteohub,2013-05-27 01:22:00,
2013-05-26 21:27:00,51.1,40.1,30.03,WNW,296,4.0,16.0,66,0.00,,,0.04,0.0,meteohub,2013-05-27 01:27:00,
2013-05-26 21:32:00,51.1,40.5,30.03,WNW,302,6.0,16.0,67,0.00,,,0.04,0.0,meteohub,2013-05-27 01:32:00,
2013-05-26 21:37:00,50.9,40.3,30.03,NW,312,8.0,13.0,67,0.00,,,0.04,0.0,meteohub,2013-05-27 01:37:00,
2013-05-26 21:42:00,50.7,40.1,30.03,WNW,294,3.0,14.0,67,0.00,,,0.04,0.0,meteohub,2013-05-27 01:42:00,
2013-05-26 21:47:00,50.7,40.1,30.03,WNW,289,4.0,14.0,67,0.00,,,0.04,0.0,meteohub,2013-05-27 01:47:00,
2013-05-26 21:52:00,50.5,39.9,30.04,NW,306,5.0,14.0,67,0.00,,,0.04,0.0,meteohub,2013-05-27 01:52:00,
2013-05-26 21:57:00,50.5,40.5,30.04,West,279,11.0,16.0,68,0.00,,,0.04,0.0,meteohub,2013-05-27 01:57:00,
2013-05-26 22:02:00,50.4,39.7,30.04,WNW,303,4.0,16.0,67,0.00,,,0.04,0.0,meteohub,2013-05-27 02:02:00,
2013-05-26 22:07:00,50.4,40.3,30.05,WNW,302,3.0,16.0,68,0.00,,,0.04,0.0,meteohub,2013-05-27 02:07:00,
2013-05-26 22:12:00,50.4,40.3,30.05,NW,313,3.0,14.0,68,0.00,,,0.04,0.0,meteohub,2013-05-27 02:12:00,
2013-05-26 22:17:00,50.2,40.5,30.05,NNW,332,5.0,14.0,69,0.00,,,0.04,0.0,meteohub,2013-05-27 02:17:00,
2013-05-26 22:22:00,50.2,40.1,30.04,NW,318,6.0,14.0,68,0.00,,,0.04,0.0,meteohub,2013-05-27 02:22:00,
2013-05-26 22:27:00,50.4,39.7,30.04,WNW,296,5.0,17.0,67,0.00,,,0.04,0.0,meteohub,2013-05-27 02:27:00,
2013-05-26 22:32:00,50.2,39.6,30.04,NW,319,7.0,17.0,67,0.00,,,0.04,0.0,meteohub,2013-05-27 02:32:00,
2013-05-26 22:37:00,50.2,40.1,30.05,WNW,294,7.0,17.0,68,0.00,,,0.04,0.0,meteohub,2013-05-27 02:37:00,
2013-05-26 22:42:00,50.2,40.5,30.05,NW,319,8.0,16.0,69,0.00,,,0.04,0.0,meteohub,2013-05-27 02:42:00,
2013-05-26 22:47:00,49.8,40.1,30.05,WNW,303,9.0,16.0,69,0.00,,,0.04,0.0,meteohub,2013-05-27 02:47:00,
2013-05-26 22:52:00,49.6,39.9,30.05,NW,304,6.0,16.0,69,0.00,,,0.04,0.0,meteohub,2013-05-27 02:52:00,
2013-05-26 22:57:00,49.6,39.9,30.05,NW,317,4.0,13.0,69,0.00,,,0.04,0.0,meteohub,2013-05-27 02:57:00,
2013-05-26 23:02:00,49.6,40.3,30.05,NW,312,11.0,14.0,70,0.00,,,0.04,0.0,meteohub,2013-05-27 03:02:00,
2013-05-26 23:07:00,49.5,39.7,30.06,WNW,290,10.0,14.0,69,0.00,,,0.04,0.0,meteohub,2013-05-27 03:07:00,
2013-05-26 23:12:00,49.5,39.7,30.06,West,281,5.0,14.0,69,0.00,,,0.04,0.0,meteohub,2013-05-27 03:12:00,
2013-05-26 23:17:00,49.5,39.7,30.06,NW,310,3.0,17.0,69,0.00,,,0.04,0.0,meteohub,2013-05-27 03:17:00,
2013-05-26 23:22:00,49.3,39.9,30.06,WNW,296,3.0,17.0,70,0.00,,,0.04,0.0,meteohub,2013-05-27 03:22:00,
2013-05-26 23:27:00,49.3,39.9,30.06,WNW,298,4.0,12.0,70,0.00,,,0.04,0.0,meteohub,2013-05-27 03:27:00,
2013-05-26 23:32:00,49.3,39.9,30.06,WNW,298,4.0,12.0,70,0.00,,,0.04,0.0,meteohub,2013-05-27 03:32:00,
2013-05-26 23:37:00,49.3,40.3,30.07,NW,310,9.0,12.0,71,0.00,,,0.04,0.0,meteohub,2013-05-27 03:37:00,
2013-05-26 23:42:00,49.1,40.1,30.07,NW,304,4.0,12.0,71,0.00,,,0.04,0.0,meteohub,2013-05-27 03:42:00,
2013-05-26 23:47:00,48.9,39.9,30.07,WNW,287,5.0,12.0,71,0.00,,,0.04,0.0,meteohub,2013-05-27 03:47:00,
2013-05-26 23:52:00,48.9,39.9,30.07,WNW,295,8.0,13.0,71,0.00,,,0.04,0.0,meteohub,2013-05-27 03:52:00,
2013-05-26 23:57:00,48.7,40.1,30.07,WNW,296,5.0,13.0,72,0.00,,,0.04,0.0,meteohub,2013-05-27 03:57:00,